Regional Weather Roundup
Issued by NWS Glasgow, MT

Home | Current Version | Previous Version | Text Only | Print | Product List | Glossary On
Versions: 1 2 3 4 5 6 7 8 9 10 11 12 13 14 15 16 17 18 19 20 21 22 23 24 25 26 27 28 29 30 31 32 33 34 35 36 37 38 39 40 41 42 43 44 45 46 47 48 49 50
000
ASUS45 KGGW 262015
RWRGGW
HOURLY REGIONAL WEATHER ROUNDUP FOR NORTHEAST MONTANA
NATIONAL WEATHER SERVICE GLASGOW MONTANA
200 PM MDT SUN MAR 26 2017

NOTE: "FAIR" INDICATES FEW OR NO CLOUDS BELOW 12,000 FEET WITH NO
SIGNIFICANT WEATHER AND/OR OBSTRUCTIONS TO VISISBILITY.

NORTHEAST MONTANA


CITY           SKY/WX    TMP DP  RH WIND       PRES   REMARKS
GLASGOW        PTSUNNY   55  22  27 W10       29.90F
PLENTYWOOD       N/A     59  22  24 W8G16       N/A
WOLF POINT     SUNNY     60  23  24 W12       29.89F
JORDAN           N/A     54  22  28 CALM      29.91F
WINNETT          N/A     54  23  30 SW3         N/A
SIDNEY         SUNNY     63  28  26 W13       29.87F
GLENDIVE       SUNNY     62  29  28 SW12      29.89F
MALTA            N/A     55  23  28 W9G17       N/A
SCOBEY           N/A     55  19  24 W14       29.88S

FORT PECK REPORTS


CITY           SKY/WX    TMP DP  RH WIND       PRES   REMARKS
FORT PECK        N/A     50  28  42 S7          N/A
THE PINES        N/A     55  22  27 CALM        N/A

SOUTHEAST MONTANA


CITY           SKY/WX    TMP DP  RH WIND       PRES   REMARKS
BILLINGS       MOSUNNY   54  27  35 VRB7      29.91F
MILES CITY     SUNNY     58  33  39 SW6       29.90F
BAKER          MOSUNNY   58  30  34 NW5       29.91F
LIVINGSTON     SUNNY     55  24  30 SW14G24   29.86F

CENTRAL MONTANA


CITY           SKY/WX    TMP DP  RH WIND       PRES   REMARKS
HAVRE          SUNNY     53  20  27 SW13      29.89F
LEWISTOWN      SUNNY     51  16  24 MISG      29.87F
GREAT FALLS    SUNNY     52  16  24 SW13G28   29.86F
CUT BANK       SUNNY     49  14  24 SW9G20    29.85F
HELENA         SUNNY     53  26  35 E8        29.87F
BUTTE          SUNNY     47  15  27 VRB5      29.87F
BOZEMAN        SUNNY     52  27  38 SE5       29.89F

WESTERN MONTANA


CITY           SKY/WX    TMP DP  RH WIND       PRES   REMARKS
MISSOULA       PTSUNNY   53  29  39 S7        29.89F
KALISPELL      NOT AVBL

NORTH DAKOTA


CITY           SKY/WX    TMP DP  RH WIND       PRES   REMARKS
WILLISTON      PTSUNNY   61  34  36 W12G17    29.86F
DICKINSON      SUNNY     59  25  27 CALM      29.87F
MINOT          SUNNY     59  42  53 NE10      29.88F
BISMARCK       SUNNY     60  36  40 VRB6      29.91F

SOUTHERN SASKATCHEWAN


CITY           SKY/WX    TMP DP  RH WIND       PRES   REMARKS
REGINA         MOSUNNY   55  27  33 SW7       29.84F
MOOSE JAW      PTSUNNY   55  25  30 W13G20    29.84S
ESTEVAN        LGT RAIN  48  43  81 N6        29.85F
SWIFT CURRENT  SUNNY     52  23  32 W16       29.82F




USA.gov is the U.S. government's official web portal to all federal, state and local government web resources and services.